Regional Weather Roundup
Issued by NWS

Home | Current Version | Previous Version | Text Only | Print | Product List | Glossary Off
Versions: 1 2 3 4 5 6 7 8 9 10 11 12 13 14 15 16 17 18 19 20 21 22 23 24 25 26 27 28 29 30 31 32 33 34 35 36 37 38 39 40 41 42 43 44 45 46 47 48 49 50

000
ASUS43 KDMX 211907
RWRIA

WEATHER ROUNDUP FOR IOWA
NATIONAL WEATHER SERVICE DES MOINES IA
100 PM CST SUN DEC 21 2014

NOTE: "FAIR" INDICATES FEW OR NO CLOUDS BELOW 12,000 FEET WITH NO
SIGNIFICANT WEATHER AND/OR OBSTRUCTIONS TO VISIBILITY.

* - THESE STATIONS ARE NOT NWS STATIONS...THUS NOT UNDER NWS
QUALITY CONTROL.  THEY ALSO DO NOT REPORT WEATHER SUCH
AS PRECIPITATION OR FOG.

IAZ001>003-012>014-020>022-031>034-043>046-212000-
   NORTHWEST IOWA

CITY           SKY/WX    TMP DP  RH WIND       PRES   REMARKS
CARROLL *      CLOUDY    39  37  93 S18G30    29.77F WCI  30
CHEROKEE *     CLOUDY    37  37 100 S12G21    29.72F FOG     WCI  30
DENISON *      CLOUDY    39  39 100 S22       29.74F FOG     WCI  29
LE MARS *      CLOUDY    41  39  93 S20G29    29.68F FOG
ORANGE CITY *  CLOUDY    39  37  93 S17       29.67F FOG     WCI  30
SHELDON *      CLOUDY    37  37 100 S17G24    29.67F FOG     WCI  28
SIOUX CITY     CLOUDY    42  38  85 S13       29.71F
SPENCER        CLOUDY    38  36  92 S14       29.70F FOG     WCI  30
STORM LAKE *   FOG       37  37 100 S20       29.73F VSB 3/4 WCI  27
$$

IAZ055>058-069>071-079>083-090>094-212000-
   SOUTHWEST IOWA

CITY           SKY/WX    TMP DP  RH WIND       PRES   REMARKS
ATLANTIC *     CLOUDY    41  39  93 S21G28    29.80F
AUDUBON *      SUNNY     39  34  81 S18       29.80F HAZE    WCI  30
CLARINDA *     CLOUDY    41  39  93 S17       29.86F
COUNCIL BLFS * CLOUDY    41  41 100 S15G23    29.76F
CRESTON *      CLOUDY    39  37  93 S23       29.84F WCI  29
HARLAN  *      CLOUDY    39  39 100 S18G28    29.82F FOG     WCI  30
LAMONI         CLOUDY    39  38  96 S13       29.89F FOG     WCI  31
RED OAK *      CLOUDY    41  39  93 S14G23    29.82F
SHENANDOAH *   CLOUDY    41  39  93 S17G24    29.83F FOG
$$

IAZ047>049-059>061-072>074-084-212000-
   CENTRAL IOWA

CITY           SKY/WX    TMP DP  RH WIND       PRES   REMARKS
AMES           CLOUDY    39  35  86 S17G23    29.85F WCI  30
ANKENY *       CLOUDY    41  36  81 S15G28    29.86F
CHARITON *     CLOUDY    41  39  93 S16       29.89F FOG
DES MOINES     CLOUDY    41  35  79 S15G30    29.87F
GRINNELL*      CLOUDY    39  37  93 S14       29.90F FOG     WCI  31
KNOXVILLE *    CLOUDY    41  37  87 S12       29.89F FOG
MARSHALLTOWN   CLOUDY    39  36  89 S21G28    29.87F WCI  29
PELLA *        CLOUDY    41  37  87 S10       29.92F
PERRY *        CLOUDY    39  37  93 S15G24    29.82F FOG     WCI  31
$$

IAZ004>006-015-016-023>025-035-036-212000-
   NORTH CENTRAL IOWA

CITY           SKY/WX    TMP DP  RH WIND       PRES   REMARKS
ALGONA *       FOG       37  37 100 S21G26    29.77F VSB 1/2 WCI  27
CLARION *      CLOUDY    37  37 100 S16       29.81F FOG     WCI  28
ESTHERVILLE    FOG       36  36 100 S20       29.71F VSB 1/2 WCI  25
FORT DODGE *   CLOUDY    37  34  87 S17G25    29.80F WCI  28
MASON CITY     CLOUDY    37  35  92 S16       29.82F FOG     WCI  28
FOREST CITY *  CLOUDY    36  36 100 S16G22    29.79F FOG     WCI  26
IOWA FALLS *   CLOUDY    39  36  87 S24       29.83F WCI  28
$$

IAZ007>011-017>019-026>030-037>042-050>054-066-212000-
   NORTHEAST IOWA

CITY           SKY/WX    TMP DP  RH WIND       PRES   REMARKS
CEDAR RAPIDS   CLOUDY    38  35  89 S14       29.93F WCI  30
CHARLES CITY * CLOUDY    37  37 100 S20G25    29.84F FOG     WCI  27
CLINTON *      CLOUDY    37  34  87 S13G20    30.03F WCI  29
DECORAH *      CLOUDY    37  36  93 S10G23    29.88F FOG     WCI  30
DUBUQUE        CLOUDY    37  33  85 S17       29.96F WCI  27
MONTICELLO *   CLOUDY    37  37 100 S15       29.97F WCI  28
OELWEIN *      CLOUDY    37  36  93 S21G30    29.90F FOG     WCI  27
WATERLOO       CLOUDY    38  36  92 S15G25    29.88F FOG     WCI  29
$$

IAZ064-065-067-068-078-212000-
   EAST CENTRAL IOWA

CITY           SKY/WX    TMP DP  RH WIND       PRES   REMARKS
DAVENPORT      CLOUDY    40  32  73 S18       30.00F WCI  31
IOWA CITY      CLOUDY    40  35  83 SE13      29.98F WCI  32
MT. PLEASANT * CLOUDY    39  37  93 SE15      29.98F WCI  31
MUSCATINE *    CLOUDY    41  36  81 S9G16     30.00F
QUAD CITIES    CLOUDY    41  34  76 S10       30.01F
$$

IAZ062-063-075>077-085>089-095>099-212000-
   SOUTHEAST IOWA

CITY           SKY/WX    TMP DP  RH WIND       PRES   REMARKS
BURLINGTON     CLOUDY    42  35  76 S15       29.99F
FAIRFIELD *    CLOUDY    41  36  81 S15       29.95F
FORT MADISON * CLOUDY    43  39  87 S12G17    30.00F
KEOKUK *       CLOUDY    43  37  81 S9        29.98F
OSKALOOSA *    CLOUDY    41  37  87 S13       29.93F
CENTERVILLE *  PTSUNNY   41  41 100 S15       29.92F
OTTUMWA        CLOUDY    41  36  82 S14       29.93F
WASHINGTON *   CLOUDY    41  41 100 S13       29.96F
$$

ABBREVIATIONS USED IN REMARKS
   TC - TEMPERATURES IN CELSIUS
  WCI - WIND CHILL INDEX
   HX - HEAT INDEX
  VSB - VISIBILITY
$$




USA.gov is the U.S. government's official web portal to all federal, state and local government web resources and services.